Find Local Weather

World > North America > United States > Ohio

East Liberty, Ohio Regional Weather

Lat: 40.33N, Lon: 83.58W
Wx Zone: OHZ044
Feedback

East Liberty, OH Regional Weather

Expires:201905202200;;187188
ASUS41 KCLE 202112
RWRCLE
OHIO REGIONAL WEATHER ROUNDUP
NATIONAL WEATHER SERVICE WILMINGTON, OH
500 PM EDT MON MAY 20 2019

NOTE: "FAIR" INDICATES FEW OR NO CLOUDS BELOW 12,000 FEET WITH NO
SIGNIFICANT WEATHER AND/OR OBSTRUCTIONS TO VISIBILITY.


OHZ001>008-015>018-024>027-034-035-043-044-202200-
   NORTHWEST OHIO
  
CITY           SKY/WX    TMP DP  RH WIND       PRES   REMARKS
DEFIANCE       CLOUDY    56  41  57 W12G22    30.05R                  
FINDLAY        CLOUDY    58  47  66 W21G26    30.03R                  
TOLEDO EXPRESS CLOUDY    57  40  52 NW16      30.02R                  
TOLEDO EXEC    CLOUDY    57  43  59 W18       30.03R                  
LIMA           CLOUDY    54  47  77 W15       30.05R                  
$$
 

SKY/WX - Weather  TMP - Temperature  DP - Dew Point  RH - Relative Humidity
WIND - Wind Direction/Speed PRES - Barometric Pressure VSB - Visibility
WCI - Wind Chill Index E13G22 Wind - East Wind 13 mph/Gusts of 22 mph